WV6L-13 Weather Reports


time (UTC)temp
C
wind
direction
speed
KPH
gust
KPH
rain 1hr
cm
rain 24hr
cm
rain mn
cm
humidity
%
barometer
mb
20260506191953 23 229 8.0 19.3 0.00 0.00 0.00 30 928.1
20260506191453 23 263 14.5 22.5 0.00 0.00 0.00 31 927.9
20260506190952 23 229 12.9 17.7 0.00 0.00 0.00 30 928.1
20260506190453 23 232 12.9 14.5 0.00 0.00 0.00 30 928.1
20260506185952 23 263 11.3 19.3 0.00 0.00 0.00 31 928.1
20260506185452 22 69 4.8 9.7 0.00 0.00 0.00 31 928.2
20260506184952 22 254 19.3 20.9 0.00 0.00 0.00 31 928.2
20260506184452 22 294 8.0 22.5 0.00 0.00 0.00 31 928.4
20260506183952 22 272 17.7 24.1 0.00 0.00 0.00 31 928.4
20260506183452 22 259 8.0 16.1 0.00 0.00 0.00 32 928.4
20260506182952 22 295 22.5 24.1 0.00 0.00 0.00 31 928.3
20260506182453 22 162 3.2 11.3 0.00 0.00 0.00 31 928.5
20260506181953 22 270 8.0 20.9 0.00 0.00 0.00 32 928.5
20260506181452 22 322 12.9 16.1 0.00 0.00 0.00 31 928.6
20260506180953 21 342 1.6 8.0 0.00 0.00 0.00 32 928.5
20260506180453 21 326 4.8 16.1 0.00 0.00 0.00 32 928.6
20260506175953 21 226 11.3 11.3 0.00 0.00 0.00 32 928.8
20260506175453 21 90 0.0 6.4 0.00 0.00 0.00 32 928.9
20260506174952 21 120 6.4 11.3 0.00 0.00 0.00 32 928.7
20260506174452 20 222 9.7 16.1 0.00 0.00 0.00 34 928.8
20260506173952 21 186 9.7 17.7 0.00 0.00 0.00 33 928.8
20260506173452 21 63 6.4 6.4 0.00 0.00 0.00 33 928.8
20260506172952 20 255 6.4 12.9 0.00 0.00 0.00 35 928.9
20260506172452 19 270 4.8 9.7 0.00 0.00 0.00 35 928.9
20260506171953 20 157 4.8 6.4 0.00 0.00 0.00 33 928.7
20260506171452 18 183 3.2 12.9 0.00 0.00 0.00 36 929.0
20260506170953 20 99 4.8 9.7 0.00 0.00 0.00 34 928.8
20260506170452 19 128 3.2 8.0 0.00 0.00 0.00 36 928.9
20260506165952 18 112 3.2 8.0 0.00 0.00 0.00 37 928.7
20260506165452 20 130 8.0 11.3 0.00 0.00 0.00 35 928.9
20260506164953 20 140 8.0 9.7 0.00 0.00 0.00 35 928.7
20260506164453 19 113 4.8 4.8 0.00 0.00 0.00 36 928.7
20260506163953 18 214 8.0 8.0 0.00 0.00 0.00 38 928.9
20260506163453 17 261 3.2 6.4 0.00 0.00 0.00 38 928.8
20260506162953 18 190 4.8 9.7 0.00 0.00 0.00 38 928.8
20260506162453 18 98 0.0 8.0 0.00 0.00 0.00 37 928.7
20260506161953 18 96 4.8 11.3 0.00 0.00 0.00 38 928.7
20260506161453 18 180 1.6 9.7 0.00 0.00 0.00 37 928.8
20260506160953 16 90 0.0 6.4 0.00 0.00 0.00 40 928.8
20260506160454 17 210 6.4 12.9 0.00 0.00 0.00 39 928.8
20260506155953 16 183 3.2 9.7 0.00 0.00 0.00 40 928.8
20260506155453 16 198 1.6 6.4 0.00 0.00 0.00 40 928.8
20260506154954 17 163 3.2 6.4 0.00 0.00 0.00 39 928.9
20260506154453 15 257 3.2 8.0 0.00 0.00 0.00 42 928.8
20260506153954 16 180 4.8 12.9 0.00 0.00 0.00 41 928.8
20260506153453 15 206 3.2 9.7 0.00 0.00 0.00 42 928.5
20260506152952 17 150 6.4 11.3 0.00 0.00 0.00 40 928.8
20260506152452 16 239 3.2 6.4 0.00 0.00 0.00 42 928.8
20260506151954 15 206 4.8 11.3 0.00 0.00 0.00 43 928.8
20260506151454 16 202 3.2 8.0 0.00 0.00 0.00 42 928.7
20260506150952 15 199 6.4 8.0 0.00 0.00 0.00 43 928.7
20260506150452 15 266 3.2 4.8 0.00 0.00 0.00 43 928.8
20260506145953 15 212 4.8 6.4 0.00 0.00 0.00 44 928.7
20260506145453 15 199 4.8 6.4 0.00 0.00 0.00 44 928.7
20260506144952 15 205 4.8 8.0 0.00 0.00 0.00 44 928.7
20260506144452 14 239 6.4 8.0 0.00 0.00 0.00 45 928.8
20260506143953 14 221 3.2 6.4 0.00 0.00 0.00 45 928.6
20260506143453 13 195 0.0 4.8 0.00 0.00 0.00 45 928.6
20260506142952 13 255 3.2 4.8 0.00 0.00 0.00 45 928.6
20260506142452 13 199 0.0 4.8 0.00 0.00 0.00 45 928.6
20260506141953 13 196 3.2 3.2 0.00 0.00 0.00 45 928.5
20260506141453 13 270 0.0 1.6 0.00 0.00 0.00 45 928.3
20260506140952 12 32 1.6 3.2 0.00 0.00 0.00 44 928.5
20260506140452 12 81 0.0 1.6 0.00 0.00 0.00 46 928.5
20260506135952 11 160 0.0 1.6 0.00 0.00 0.00 47 928.4
20260506135453 10 105 1.6 3.2 0.00 0.00 0.00 49 928.3
20260506134952 10 102 1.6 3.2 0.00 0.00 0.00 49 928.3
20260506134452 10 81 0.0 3.2 0.00 0.00 0.00 51 928.4
20260506133953 10 53 3.2 3.2 0.00 0.00 0.00 51 928.3
20260506133452 9 57 1.6 3.2 0.00 0.00 0.00 52 927.9
20260506132953 9 90 3.2 3.2 0.00 0.00 0.00 53 928.0
20260506132452 8 80 3.2 4.8 0.00 0.00 0.00 54 927.8
20260506131953 7 90 3.2 6.4 0.00 0.00 0.00 56 927.8
20260506131452 7 82 3.2 4.8 0.00 0.00 0.00 57 927.8
20260506130952 7 106 4.8 4.8 0.00 0.00 0.00 59 927.6
20260506130452 7 109 4.8 4.8 0.00 0.00 0.00 58 927.4
20260506125952 7 112 3.2 4.8 0.00 0.00 0.00 57 927.5
20260506125453 7 97 4.8 6.4 0.00 0.00 0.00 56 927.5
20260506124953 7 99 4.8 6.4 0.00 0.00 0.00 56 927.3
20260506124452 8 77 3.2 4.8 0.00 0.00 0.00 55 927.2
20260506123952 8 66 1.6 3.2 0.00 0.00 0.00 56 927.2
20260506123452 8 74 3.2 3.2 0.00 0.00 0.00 56 927.2
20260506122952 8 75 3.2 4.8 0.00 0.00 0.00 56 927.3
20260506122453 8 73 3.2 3.2 0.00 0.00 0.00 56 927.1
20260506121954 8 72 3.2 3.2 0.00 0.00 0.00 57 927.0
20260506121452 8 83 1.6 3.2 0.00 0.00 0.00 53 927.1
20260506120952 8 99 3.2 3.2 0.00 0.00 0.00 54 926.9
20260506120453 8 110 4.8 4.8 0.00 0.00 0.00 53 926.9
20260506115952 8 139 3.2 3.2 0.00 0.00 0.00 53 927.0
20260506115452 8 139 3.2 3.2 0.00 0.00 0.00 53 927.1
20260506114953 8 97 1.6 3.2 0.00 0.00 0.00 53 927.0
20260506114452 8 123 1.6 3.2 0.00 0.00 0.00 51 926.9
20260506113954 8 110 3.2 3.2 0.00 0.00 0.00 50 927.0
20260506113452 9 115 3.2 3.2 0.00 0.00 0.00 50 926.8
20260506112952 8 109 1.6 3.2 0.00 0.00 0.00 50 926.8
20260506112452 9 103 1.6 3.2 0.00 0.00 0.00 49 926.7
20260506111953 9 128 3.2 3.2 0.00 0.00 0.00 49 926.6
20260506111452 9 127 3.2 4.8 0.00 0.00 0.00 49 926.6
20260506110954 10 150 3.2 6.4 0.00 0.00 0.00 49 926.4
20260506110453 9 163 3.2 4.8 0.00 0.00 0.00 49 926.6
20260506105953 10 117 3.2 4.8 0.00 0.00 0.00 48 926.6
20260506105453 10 115 3.2 4.8 0.00 0.00 0.00 47 926.4
20260506104952 10 159 3.2 3.2 0.00 0.00 0.00 45 926.5
20260506104452 10 135 3.2 4.8 0.00 0.00 0.00 46 926.3
20260506103952 10 165 0.0 3.2 0.00 0.00 0.00 46 926.3
20260506103452 10 172 0.0 3.2 0.00 0.00 0.00 45 926.2
20260506102952 10 180 0.0 3.2 0.00 0.00 0.00 45 926.3
20260506102453 10 164 3.2 3.2 0.00 0.00 0.00 46 926.1
20260506101952 10 154 0.0 3.2 0.00 0.00 0.00 48 926.0
20260506101452 9 154 3.2 4.8 0.00 0.00 0.00 48 926.0
20260506100953 10 180 3.2 3.2 0.00 0.00 0.00 47 925.9
20260506100453 10 175 3.2 6.4 0.00 0.00 0.00 48 926.2
20260506095953 10 84 3.2 4.8 0.00 0.00 0.00 47 925.9
20260506095453 10 109 3.2 3.2 0.00 0.00 0.00 47 925.9
20260506094953 10 165 0.0 3.2 0.00 0.00 0.00 47 925.8
20260506094453 10 105 0.0 4.8 0.00 0.00 0.00 46 925.8
20260506093953 10 32 1.6 6.4 0.00 0.00 0.00 46 925.6
20260506093453 10 121 4.8 6.4 0.00 0.00 0.00 47 925.7
20260506092952 10 63 3.2 4.8 0.00 0.00 0.00 47 925.7
20260506092452 10 34 3.2 4.8 0.00 0.00 0.00 46 925.7
20260506091952 11 352 3.2 6.4 0.00 0.00 0.00 45 925.7
20260506091452 11 315 4.8 6.4 0.00 0.00 0.00 45 925.5
20260506090953 12 337 0.0 3.2 0.00 0.00 0.00 42 925.7
20260506090453 11 90 0.0 3.2 0.00 0.00 0.00 44 925.6
20260506085952 11 82 3.2 4.8 0.00 0.00 0.00 44 925.7
20260506085452 11 90 1.6 3.2 0.00 0.00 0.00 45 925.5
20260506084953 10 96 3.2 4.8 0.00 0.00 0.00 48 925.5
20260506084452 10 120 3.2 4.8 0.00 0.00 0.00 47 925.5
20260506083952 10 96 0.0 3.2 0.00 0.00 0.00 46 925.4
20260506083453 11 95 3.2 6.4 0.00 0.00 0.00 46 925.3
20260506082953 11 96 1.6 8.0 0.00 0.00 0.00 46 925.3
20260506082453 11 86 3.2 6.4 0.00 0.00 0.00 46 925.3
20260506081953 11 85 3.2 4.8 0.00 0.00 0.00 46 925.3
20260506081452 11 114 3.2 4.8 0.00 0.00 0.00 45 925.3
20260506080952 11 165 0.0 6.4 0.00 0.00 0.00 45 925.2
20260506080453 11 100 3.2 11.3 0.00 0.00 0.00 46 925.1
20260506073453 12 155 4.8 4.8 0.00 0.00 0.00 44 925.2
20260506072953 12 174 1.6 3.2 0.00 0.00 0.00 44 925.1
20260506072453 11 159 3.2 4.8 0.00 0.00 0.00 45 925.2
20260506071953 12 140 6.4 8.0 0.00 0.00 0.00 44 925.1
20260506071453 13 110 3.2 3.2 0.00 0.00 0.00 42 925.1
20260506070952 13 151 0.0 3.2 0.00 0.00 0.00 43 925.0
20260506070453 12 180 1.6 4.8 0.00 0.00 0.00 42 925.0
20260506062453 14 26 0.0 4.8 0.00 0.00 0.00 40 924.6
20260506061953 14 74 0.0 3.2 0.00 0.00 0.00 41 924.4
20260506061452 14 45 3.2 3.2 0.00 0.00 0.00 40 924.5
20260506060952 14 28 3.2 4.8 0.00 0.00 0.00 41 924.6
20260506060453 14 12 3.2 6.4 0.00 0.00 0.00 41 924.7
20260506050952 15 90 0.0 1.6 0.00 0.00 0.00 38 924.2
20260506050454 15 90 3.2 3.2 0.00 0.00 0.00 38 924.3
20260506044953 15 104 4.8 4.8 0.00 0.00 0.00 37 924.2
20260506044453 15 111 1.6 4.8 0.00 0.00 0.00 36 924.1
20260506043953 16 82 3.2 4.8 0.00 0.00 0.00 34 923.9
20260506043453 16 306 0.0 6.4 0.00 0.00 0.00 35 923.8
20260506042953 16 331 0.0 3.2 0.00 0.00 0.00 37 923.8
20260506042453 15 72 3.2 3.2 0.00 0.00 0.00 37 923.7
20260506041952 15 90 1.6 3.2 0.00 0.00 0.00 36 923.5
20260506041452 15 96 3.2 3.2 0.00 0.00 0.00 36 923.7
20260506040953 16 117 1.6 1.6 0.00 0.00 0.00 36 923.5
20260506040452 15 229 0.0 4.8 0.00 0.00 0.00 37 923.3
20260506035953 16 99 3.2 4.8 0.00 0.00 0.00 35 923.2
20260506035452 16 99 3.2 6.4 0.00 0.00 0.00 35 923.3
20260506034952 16 90 3.2 3.2 0.00 0.00 0.00 35 923.3
20260506034453 17 106 3.2 4.8 0.00 0.00 0.00 33 923.1
20260506033953 17 166 3.2 4.8 0.00 0.00 0.00 33 923.1
20260506033452 17 166 3.2 4.8 0.00 0.00 0.00 33 923.1
20260506032953 17 164 3.2 3.2 0.00 0.00 0.00 33 922.9
20260506032453 17 209 1.6 3.2 0.00 0.00 0.00 34 922.8
20260506031952 17 180 0.0 3.2 0.00 0.00 0.00 34 922.6
20260506031452 17 132 3.2 6.4 0.00 0.00 0.00 34 922.6
20260506030953 17 108 3.2 6.4 0.00 0.00 0.00 33 922.6
20260506030453 18 145 4.8 6.4 0.00 0.00 0.00 32 922.5
20260506025953 18 157 3.2 4.8 0.00 0.00 0.00 32 922.3
20260506025452 18 158 4.8 6.4 0.00 0.00 0.00 31 922.4
20260506024953 18 174 1.6 6.4 0.00 0.00 0.00 31 922.5
20260506024453 19 171 6.4 6.4 0.00 0.00 0.00 31 922.2
20260506023953 19 183 3.2 8.0 0.00 0.00 0.00 31 922.1
20260506023453 19 180 3.2 11.3 0.00 0.00 0.00 30 922.0
20260506022953 20 180 4.8 8.0 0.00 0.00 0.00 30 921.9
20260506022453 20 186 4.8 8.0 0.00 0.00 0.00 30 921.9
20260506021952 20 211 9.7 9.7 0.00 0.00 0.00 29 921.8
20260506021452 20 225 0.0 9.7 0.00 0.00 0.00 29 921.9
20260506020953 21 217 8.0 11.3 0.00 0.00 0.00 28 921.8
20260506020453 21 168 6.4 6.4 0.00 0.00 0.00 28 921.7
20260506015952 21 214 4.8 6.4 0.00 0.00 0.00 28 921.8
20260506015453 21 105 1.6 9.7 0.00 0.00 0.00 29 921.6
20260506014953 21 235 6.4 19.3 0.00 0.00 0.00 29 921.8
20260506014453 21 175 8.0 9.7 0.00 0.00 0.00 28 921.5
20260506013953 21 197 6.4 16.1 0.00 0.00 0.00 29 921.6
20260506013453 21 216 4.8 11.3 0.00 0.00 0.00 28 921.7
20260506012953 21 218 12.9 17.7 0.00 0.00 0.00 28 921.6
20260506012453 21 225 3.2 9.7 0.00 0.00 0.00 28 921.6
20260506011953 21 217 6.4 17.7 0.00 0.00 0.00 28 921.5
20260506011452 21 223 17.7 20.9 0.00 0.00 0.00 28 921.6
20260506010952 21 212 12.9 16.1 0.00 0.00 0.00 29 921.5
20260506010453 21 220 9.7 17.7 0.00 0.00 0.00 30 921.6
20260506005953 21 228 9.7 14.5 0.00 0.00 0.00 29 921.5
20260506005453 22 222 16.1 16.1 0.00 0.00 0.00 29 921.6
20260506004953 21 112 3.2 17.7 0.00 0.00 0.00 29 921.3
20260506004452 21 256 9.7 19.3 0.00 0.00 0.00 29 921.4
20260506003953 21 191 9.7 16.1 0.00 0.00 0.00 30 921.4
20260506003453 22 199 8.0 16.1 0.00 0.00 0.00 29 921.4
20260506002953 21 180 3.2 19.3 0.00 0.00 0.00 30 921.4
20260506002453 21 270 6.4 22.5 0.00 0.00 0.00 30 921.5
20260506001952 21 211 8.0 17.7 0.00 0.00 0.00 30 921.3
20260506001453 21 144 6.4 20.9 0.00 0.00 0.00 30 921.5
20260506000953 21 146 14.5 29.0 0.00 0.00 0.00 31 921.3
20260506000453 22 186 6.4 14.5 0.00 0.00 0.00 29 921.3
20260505235953 21 185 4.8 14.5 0.00 0.00 0.00 30 921.3
20260505235453 21 195 4.8 19.3 0.00 0.00 0.00 31 921.4
20260505234952 21 262 9.7 19.3 0.00 0.00 0.00 30 921.2
20260505234453 21 312 16.1 22.5 0.00 0.00 0.00 31 921.2
20260505233953 21 239 9.7 27.4 0.00 0.00 0.00 31 921.2
20260505233453 22 253 9.7 25.7 0.00 0.00 0.00 30 921.3
20260505232952 21 254 8.0 12.9 0.00 0.00 0.00 30 921.1
20260505232453 22 217 16.1 16.1 0.00 0.00 0.00 30 921.3
20260505231953 21 259 9.7 19.3 0.00 0.00 0.00 31 921.2
20260505231453 20 222 4.8 22.5 0.00 0.00 0.00 31 921.3
20260505230952 22 263 8.0 16.1 0.00 0.00 0.00 30 921.4
20260505230452 21 247 6.4 11.3 0.00 0.00 0.00 31 921.3
20260505225953 20 255 8.0 19.3 0.00 0.00 0.00 32 921.5
20260505225452 22 205 6.4 8.0 0.00 0.00 0.00 30 921.5
20260505224953 21 166 3.2 4.8 0.00 0.00 0.00 30 921.7
20260505224453 21 229 6.4 9.7 0.00 0.00 0.00 30 921.9
20260505223953 21 143 0.0 19.3 0.00 0.00 0.00 31 921.8
20260505223452 20 114 3.2 11.3 0.00 0.00 0.00 32 921.7
20260505222953 21 187 9.7 32.2 0.00 0.00 0.00 32 921.7
20260505222452 20 105 4.8 24.1 0.00 0.00 0.00 33 921.8
20260505221953 21 201 4.8 29.0 0.00 0.00 0.00 32 922.0
20260505221453 21 182 6.4 11.3 0.00 0.00 0.00 31 921.8
20260505220953 21 243 3.2 17.7 0.00 0.00 0.00 31 921.8
20260505220452 21 138 16.1 27.4 0.00 0.00 0.00 32 921.9
20260505215952 22 120 16.1 27.4 0.00 0.00 0.00 30 921.9
20260505215453 21 121 11.3 22.5 0.00 0.00 0.00 31 922.1
20260505214953 21 125 6.4 22.5 0.00 0.00 0.00 33 922.3
20260505214453 20 156 9.7 11.3 0.00 0.00 0.00 32 922.2
20260505213953 20 236 0.0 16.1 0.00 0.00 0.00 33 922.3
20260505213452 20 336 12.9 16.1 0.00 0.00 0.00 33 922.4
20260505212953 20 328 12.9 12.9 0.00 0.00 0.00 32 922.3
20260505212453 19 241 3.2 14.5 0.00 0.00 0.00 33 922.4
20260505211953 20 128 6.4 16.1 0.00 0.00 0.00 32 922.4
20260505211452 20 132 16.1 19.3 0.00 0.00 0.00 33 922.5
20260505210953 20 106 4.8 6.4 0.00 0.00 0.00 32 922.6
20260505210453 21 156 12.9 14.5 0.00 0.00 0.00 31 922.6
20260505205952 19 148 3.2 11.3 0.00 0.00 0.00 33 922.7
20260505205453 18 262 6.4 16.1 0.00 0.00 0.00 34 922.7
20260505204953 18 245 3.2 12.9 0.00 0.00 0.00 35 922.7
20260505204453 18 319 9.7 16.1 0.00 0.00 0.00 34 922.6
20260505203953 19 257 9.7 14.5 0.00 0.00 0.00 33 922.6
20260505203452 19 52 6.4 9.7 0.00 0.00 0.00 34 922.7
20260505202953 20 265 3.2 12.9 0.00 0.00 0.00 33 922.7
20260505202453 20 262 9.7 9.7 0.00 0.00 0.00 33 922.9
20260505201953 20 210 0.0 12.9 0.00 0.00 0.00 33 922.9
20260505201453 20 199 16.1 19.3 0.00 0.00 0.00 33 923.0
20260505200953 20 213 17.7 20.9 0.00 0.00 0.00 33 923.1
20260505200452 20 126 9.7 19.3 0.00 0.00 0.00 32 923.0
20260505195953 18 324 3.2 9.7 0.00 0.00 0.00 34 923.0
20260505195453 19 194 9.7 27.4 0.00 0.00 0.00 34 923.0
20260505194953 19 229 9.7 24.1 0.00 0.00 0.00 33 923.2
20260505194452 20 242 11.3 12.9 0.00 0.00 0.00 32 923.1
20260505193953 17 215 4.8 14.5 0.00 0.00 0.00 35 923.2
20260505193453 18 251 16.1 20.9 0.00 0.00 0.00 35 923.2
20260505192953 19 288 11.3 19.3 0.00 0.00 0.00 35 923.1
20260505192453 17 90 4.8 16.1 0.00 0.00 0.00 37 923.3